| time (UTC) | temp F | wind direction | speed MPH | gust MPH | rain 1hr in | rain 24hr in | rain mn in | humidity % | barometer mb |
| 20260902060059 | 52 | 260 | 1.0 | 5.0 | 0.00 | 0.01 | 0.00 | 91 | 1014.8 |
| 20260902055542 | 52 | 191 | 0.0 | 4.0 | 0.00 | 0.01 | 0.00 | 91 | 1014.8 |
| 20260902055042 | 53 | 221 | 1.0 | 8.0 | 0.00 | 0.01 | 0.00 | 90 | 1014.8 |
| 20260902054543 | 53 | 222 | 3.0 | 8.0 | 0.00 | 0.01 | 0.00 | 89 | 1014.8 |
| 20260902054045 | 53 | 359 | 4.0 | 10.0 | 0.00 | 0.01 | 0.00 | 88 | 1014.8 |
| 20260902053540 | 53 | 192 | 4.0 | 8.0 | 0.00 | 0.01 | 0.00 | 87 | 1014.8 |
| 20260902053042 | 53 | 205 | 4.0 | 7.0 | 0.00 | 0.01 | 0.00 | 86 | 1014.8 |
| 20260902052539 | 53 | 222 | 4.0 | 9.0 | 0.00 | 0.01 | 0.00 | 86 | 1014.8 |
| 20260902052039 | 53 | 192 | 5.0 | 10.0 | 0.00 | 0.01 | 0.00 | 86 | 1015.0 |
| 20260902051541 | 53 | 193 | 4.0 | 11.0 | 0.00 | 0.01 | 0.00 | 88 | 1014.9 |
| 20260902051038 | 53 | 184 | 4.0 | 11.0 | 0.00 | 0.01 | 0.00 | 88 | 1014.9 |
| 20260902050037 | 54 | 359 | 5.0 | 11.0 | 0.00 | 0.01 | 0.00 | 90 | 1014.9 |
| 20260902045539 | 53 | 177 | 5.0 | 11.0 | 0.00 | 0.01 | 0.00 | 91 | 1014.9 |
| 20260902045036 | 54 | 193 | 4.0 | 11.0 | 0.00 | 0.01 | 0.00 | 91 | 1014.9 |
| 20260902044543 | 54 | 191 | 5.0 | 9.0 | 0.00 | 0.01 | 0.00 | 91 | 1015.0 |
| 20260902044036 | 54 | 210 | 4.0 | 9.0 | 0.00 | 0.01 | 0.00 | 90 | 1015.1 |
| 20260902043536 | 54 | 177 | 4.0 | 7.0 | 0.00 | 0.01 | 0.00 | 90 | 1015.0 |
| 20260902043037 | 54 | 197 | 5.0 | 8.0 | 0.00 | 0.01 | 0.00 | 91 | 1015.0 |
| 20260902042536 | 54 | 203 | 4.0 | 9.0 | 0.00 | 0.01 | 0.00 | 91 | 1014.9 |
| 20260902042036 | 54 | 192 | 4.0 | 11.0 | 0.00 | 0.01 | 0.00 | 91 | 1015.0 |
| 20260902041539 | 54 | 205 | 5.0 | 11.0 | 0.00 | 0.01 | 0.00 | 92 | 1015.1 |
| 20260902041035 | 54 | 220 | 6.0 | 9.0 | 0.00 | 0.01 | 0.00 | 92 | 1015.1 |
| 20260902040036 | 54 | 359 | 5.0 | 9.0 | 0.00 | 0.01 | 0.00 | 91 | 1015.1 |
| 20260902035533 | 54 | 191 | 4.0 | 9.0 | 0.00 | 0.01 | 0.00 | 92 | 1015.0 |
| 20260902035035 | 54 | 177 | 5.0 | 10.0 | 0.00 | 0.01 | 0.00 | 92 | 1015.0 |
| 20260902034534 | 54 | 224 | 5.0 | 10.0 | 0.00 | 0.01 | 0.00 | 92 | 1015.1 |
| 20260902034034 | 54 | 359 | 4.0 | 9.0 | 0.00 | 0.01 | 0.00 | 92 | 1015.0 |
| 20260902033532 | 54 | 207 | 4.0 | 9.0 | 0.00 | 0.01 | 0.00 | 92 | 1014.9 |
| 20260902033031 | 54 | 253 | 3.0 | 10.0 | 0.00 | 0.01 | 0.00 | 92 | 1014.9 |
| 20260902032532 | 54 | 147 | 5.0 | 10.0 | 0.00 | 0.01 | 0.00 | 91 | 1014.9 |
| 20260902032030 | 54 | 222 | 4.0 | 10.0 | 0.00 | 0.01 | 0.00 | 91 | 1014.9 |
| 20260902031539 | 54 | 147 | 4.0 | 10.0 | 0.00 | 0.01 | 0.00 | 91 | 1014.9 |
| 20260902031031 | 54 | 245 | 4.0 | 11.0 | 0.00 | 0.01 | 0.00 | 90 | 1015.0 |
| 20260902030037 | 55 | 224 | 6.0 | 12.0 | 0.00 | 0.01 | 0.00 | 90 | 1014.9 |
| 20260902025534 | 55 | 189 | 6.0 | 11.0 | 0.00 | 0.01 | 0.00 | 91 | 1014.9 |
| 20260902025035 | 54 | 231 | 6.0 | 13.0 | 0.00 | 0.01 | 0.00 | 92 | 1014.9 |
| 20260902024536 | 55 | 214 | 7.0 | 13.0 | 0.00 | 0.01 | 0.00 | 92 | 1014.9 |
| 20260902024034 | 55 | 191 | 6.0 | 14.0 | 0.00 | 0.01 | 0.00 | 91 | 1014.9 |
| 20260902023532 | 55 | 201 | 6.0 | 14.0 | 0.00 | 0.02 | 0.00 | 91 | 1014.8 |
| 20260902023032 | 55 | 210 | 6.0 | 17.0 | 0.00 | 0.02 | 0.00 | 91 | 1014.8 |
| 20260902022531 | 55 | 175 | 8.0 | 17.0 | 0.00 | 0.02 | 0.00 | 91 | 1014.7 |
| 20260902022033 | 55 | 151 | 9.0 | 19.0 | 0.00 | 0.02 | 0.00 | 91 | 1014.7 |
| 20260902021541 | 55 | 359 | 7.0 | 19.0 | 0.00 | 0.02 | 0.00 | 90 | 1014.7 |
| 20260902021032 | 55 | 181 | 7.0 | 13.0 | 0.00 | 0.02 | 0.00 | 90 | 1014.6 |
| 20260902020033 | 55 | 189 | 7.0 | 14.0 | 0.00 | 0.02 | 0.00 | 89 | 1014.7 |
| 20260902015524 | 55 | 188 | 6.0 | 14.0 | 0.00 | 0.02 | 0.00 | 89 | 1014.8 |
| 20260902015024 | 55 | 359 | 5.0 | 14.0 | 0.00 | 0.02 | 0.00 | 89 | 1014.6 |
| 20260902014543 | 55 | 197 | 4.0 | 14.0 | 0.00 | 0.02 | 0.00 | 88 | 1014.6 |
| 20260902014025 | 56 | 137 | 4.0 | 14.0 | 0.00 | 0.02 | 0.00 | 88 | 1014.5 |
| 20260902013522 | 56 | 160 | 6.0 | 12.0 | 0.00 | 0.18 | 0.00 | 88 | 1014.4 |
| 20260902013021 | 56 | 204 | 5.0 | 13.0 | 0.00 | 0.18 | 0.00 | 88 | 1014.3 |
| 20260902012521 | 56 | 208 | 7.0 | 15.0 | 0.00 | 0.18 | 0.00 | 88 | 1014.3 |
| 20260902012023 | 56 | 177 | 7.0 | 13.0 | 0.00 | 0.18 | 0.00 | 89 | 1014.3 |
| 20260902011521 | 56 | 225 | 6.0 | 14.0 | 0.00 | 0.18 | 0.00 | 89 | 1014.3 |
| 20260902011021 | 56 | 220 | 6.0 | 14.0 | 0.00 | 0.18 | 0.00 | 90 | 1014.2 |
| 20260902010021 | 55 | 192 | 3.0 | 7.0 | 0.00 | 0.18 | 0.00 | 92 | 1014.0 |
| 20260902005519 | 56 | 87 | 0.0 | 4.0 | 0.00 | 0.18 | 0.00 | 92 | 1013.9 |
| 20260902005018 | 56 | 174 | 0.0 | 5.0 | 0.00 | 0.18 | 0.00 | 92 | 1013.8 |
| 20260902004523 | 56 | 174 | 0.0 | 6.0 | 0.00 | 0.18 | 0.00 | 92 | 1013.9 |
| 20260902004020 | 56 | 192 | 2.0 | 8.0 | 0.00 | 0.18 | 0.00 | 92 | 1013.7 |
| 20260902003520 | 56 | 247 | 3.0 | 8.0 | 0.00 | 0.64 | 0.00 | 91 | 1013.8 |
| 20260902003017 | 56 | 235 | 3.0 | 6.0 | 0.00 | 0.64 | 0.00 | 91 | 1013.9 |
| 20260902002516 | 57 | 204 | 1.0 | 8.0 | 0.00 | 0.64 | 0.00 | 90 | 1013.7 |
| 20260902002016 | 57 | 224 | 3.0 | 10.0 | 0.00 | 0.64 | 0.00 | 89 | 1013.7 |
| 20260902001516 | 57 | 189 | 4.0 | 12.0 | 0.00 | 0.64 | 0.00 | 89 | 1013.7 |
| 20260902001016 | 57 | 187 | 5.0 | 11.0 | 0.00 | 0.64 | 0.00 | 89 | 1013.6 |
| 20260902000027 | 58 | 235 | 5.0 | 11.0 | 0.00 | 0.64 | 0.00 | 89 | 1013.5 |
| 20260901235519 | 58 | 180 | 7.0 | 13.0 | 0.00 | 0.64 | 0.00 | 88 | 1013.5 |
| 20260901235015 | 58 | 188 | 6.0 | 15.0 | 0.00 | 0.64 | 0.00 | 88 | 1013.4 |
| 20260901234533 | 58 | 187 | 5.0 | 15.0 | 0.00 | 0.64 | 0.00 | 87 | 1013.4 |
| 20260901234014 | 58 | 191 | 6.0 | 10.0 | 0.00 | 0.64 | 0.00 | 87 | 1013.4 |
| 20260901233515 | 58 | 191 | 6.0 | 11.0 | 0.00 | 0.71 | 0.00 | 86 | 1013.2 |
| 20260901233014 | 58 | 183 | 7.0 | 14.0 | 0.00 | 0.71 | 0.00 | 86 | 1013.1 |
| 20260901232513 | 58 | 208 | 7.0 | 15.0 | 0.00 | 0.71 | 0.00 | 86 | 1013.1 |
| 20260901232015 | 58 | 214 | 7.0 | 14.0 | 0.00 | 0.71 | 0.00 | 85 | 1012.9 |
| 20260901231512 | 58 | 187 | 7.0 | 14.0 | 0.00 | 0.71 | 0.00 | 84 | 1012.8 |
| 20260901231011 | 58 | 226 | 7.0 | 12.0 | 0.00 | 0.71 | 0.00 | 84 | 1012.8 |
| 20260901230013 | 58 | 223 | 8.0 | 15.0 | 0.00 | 0.71 | 0.00 | 84 | 1012.6 |
| 20260901225510 | 58 | 191 | 6.0 | 12.0 | 0.00 | 0.71 | 0.00 | 84 | 1012.6 |
| 20260901225009 | 59 | 235 | 6.0 | 12.0 | 0.00 | 0.71 | 0.00 | 85 | 1012.5 |
| 20260901224509 | 59 | 235 | 6.0 | 13.0 | 0.00 | 0.71 | 0.00 | 86 | 1012.5 |
| 20260901224008 | 59 | 359 | 7.0 | 13.0 | 0.00 | 0.71 | 0.00 | 86 | 1012.4 |
| 20260901223508 | 58 | 222 | 6.0 | 12.0 | 0.00 | 0.91 | 0.00 | 86 | 1012.4 |
| 20260901223010 | 58 | 243 | 6.0 | 12.0 | 0.00 | 0.91 | 0.00 | 87 | 1012.3 |
| 20260901222506 | 58 | 183 | 6.0 | 12.0 | 0.00 | 0.91 | 0.00 | 87 | 1012.1 |
| 20260901222005 | 58 | 183 | 6.0 | 13.0 | 0.00 | 0.91 | 0.00 | 86 | 1012.0 |
| 20260901221518 | 58 | 212 | 6.0 | 12.0 | 0.00 | 0.91 | 0.00 | 86 | 1011.9 |
| 20260901221008 | 58 | 176 | 7.0 | 14.0 | 0.00 | 0.91 | 0.00 | 86 | 1011.8 |
| 20260901220012 | 59 | 197 | 6.0 | 17.0 | 0.00 | 0.91 | 0.00 | 86 | 1011.5 |
| 20260901215504 | 59 | 162 | 7.0 | 17.0 | 0.00 | 0.91 | 0.00 | 85 | 1011.4 |